This is the latest recevied weather packets stored in our database for station/object WA1OUI. If no packets are shown the sender has not sent any weather packets the latest 10 day(s).
| Time | Temp. | Humidity | Pressure | Rain* | Wind** | Luminosity | Snow |
|---|---|---|---|---|---|---|---|
| 1777666997 | 17.78° C | 31% | 1007.8 hPa | 0 mm | - | 360 W/m² | - |
| 1777666391 | 17.78° C | 30% | 1007.6 hPa | 0 mm | - | 478 W/m² | - |
| 1777664570 | 18.33° C | 30% | 1007.9 hPa | 0 mm | - | 562 W/m² | - |
| 1777664266 | 17.78° C | 31% | 1007.6 hPa | 0 mm | - | 622 W/m² | - |
| 1777663056 | 18.33° C | 28% | 1008 hPa | 0 mm | - | 571 W/m² | - |
| 1777662753 | 18.33° C | 30% | 1008.1 hPa | 0 mm | - | 581 W/m² | - |
| 1777662145 | 18.33° C | 32% | 1008.2 hPa | 0 mm | - | 610 W/m² | - |
| 1777660625 | 17.78° C | 31% | 1008.4 hPa | 0 mm | - | 685 W/m² | - |
| 1777660322 | 17.78° C | 31% | 1008.5 hPa | 0 mm | - | 698 W/m² | - |
| 1777660018 | 17.22° C | 32% | 1008.5 hPa | 0 mm | - | 756 W/m² | - |
| 1777659715 | 17.22° C | 32% | 1008.6 hPa | 0 mm | - | 723 W/m² | - |
| 1777659412 | 16.67° C | 34% | 1008.8 hPa | 0 mm | - | 721 W/m² | - |
| 1777659109 | 16.67° C | 33% | 1008.7 hPa | 0 mm | - | 110 W/m² | - |
| 1777658807 | 17.22° C | 35% | 1008.7 hPa | 0 mm | - | 750 W/m² | - |
| 1777658503 | 17.22° C | 32% | 1008.8 hPa | 0 mm | - | 745 W/m² | - |
| 1777658200 | 17.22° C | 30% | 1008.7 hPa | 0 mm | - | 774 W/m² | - |
| 1777656989 | 16.67° C | 33% | 1008.9 hPa | 0 mm | - | 807 W/m² | - |
| 1777656685 | 16.67° C | 32% | 1008.8 hPa | 0 mm | - | 879 W/m² | - |
| 1777656381 | 16.11° C | 31% | 1008.7 hPa | 0 mm | - | 834 W/m² | - |
| 1777656076 | 16.11° C | 33% | 1008.9 hPa | 0 mm | - | 855 W/m² | - |
| 1777655773 | 16.11° C | 35% | 1009 hPa | 0 mm | - | 816 W/m² | - |
| 1777655470 | 16.67° C | 31% | 1008.9 hPa | 0 mm | - | 91 W/m² | - |
| 1777655167 | 16.67° C | 32% | 1008.9 hPa | 0 mm | - | 900 W/m² | - |
| 1777654561 | 16.67° C | 32% | 1009.1 hPa | 0 mm | - | 833 W/m² | - |
| 1777654258 | 16.67° C | 35% | 1009.1 hPa | 0 mm | - | 830 W/m² | - |
* Rain latest hour (hover to see other rain measurements)
** Current wind speed in m/s (hover to see current wind gust speed)